Flag Weather past 2 weeks in Ajmān, Ajmān, United Arab Emirates

Now
70 °F

Clear.


Feels Like: 70 °F
Forecast: 77 / 82 °F
Wind: 7 mph from South

Location: Sharjah International Airport

Current Time: Nov 28, 2014 at 3:22:51 AM

Latest Report: Nov 28, 2014 at 3:00 AM


Visibility: 10 mi

Pressure: 29.95 "Hg

Humidity: 69%

Dew point: 59 °F

Location of AjmānLocation

Historic Weather in Ajmān — Graph

°F

Ajmān temperature yesterday

Maximum temperature yesterday: 84 °F (at 12:00 PM)
Minimum temperature yesterday: 68 °F (at 7:00 AM)
Average temperature yesterday: 77 °F

Past Weeks' High & Low Weather Summary

 TemperatureHumidityPressure
High90 °F (Nov 25, 2:00 PM)94% (Nov 24, 6:00 AM)30.15 "Hg (Nov 24, 6:00 AM)
Low63 °F (Nov 13, 4:00 AM)16% (Nov 13, 12:00 PM)29.89 "Hg (Nov 23, 3:00 PM)
Average76 °F58%30.01 "Hg
* Reported Nov 13 2:00 AM — Nov 28 2:00 AM, Ajmān, Weather by CustomWeather, © 2014

Note: Actual official high and low records may vary slightly from our data, if they occured in-between our weather recording intervals... More about our weather records

Advertising

Ajmān weather history for previous 24 hours

 ConditionsComfort  
Time TempWeatherWind HumidityBarometerVisibility
2:00 AM
Nov 28
70 °FPassing clouds.6 mph69%29.95 "HgN/A
1:00 AM72 °FClear.6 mph65%29.95 "Hg10 mi
12:00 AM72 °FClear.5 mph65%29.98 "Hg10 mi
11:00 PM
Nov 27
75 °FClear.7 mph61%29.98 "Hg10 mi
10:00 PM75 °FClear.5 mph61%29.98 "Hg10 mi
9:00 PM77 °FClear.3 mph57%29.98 "Hg10 mi
8:00 PM77 °FClear.6 mph57%29.98 "Hg10 mi
7:00 PM79 °FClear.7 mph54%29.95 "Hg10 mi
6:00 PM79 °FClear.10 mph54%29.95 "Hg10 mi
5:00 PM81 °FSunny.13 mph48%29.95 "Hg10 mi
4:00 PM82 °FSunny.13 mph42%29.92 "Hg10 mi
3:00 PM84 °FSunny.12 mph37%29.92 "Hg10 mi
2:00 PM84 °FPassing clouds.10 mph35%29.95 "HgN/A
1:00 PM84 °FPassing clouds.12 mph35%29.95 "HgN/A
12:00 PM84 °FPassing clouds.12 mph37%29.98 "HgN/A
11:00 AM82 °FPassing clouds.10 mph45%30.01 "HgN/A
10:00 AM79 °FPassing clouds.6 mph58%30.04 "HgN/A
9:00 AM75 °FSunny.8 mph65%30.01 "Hg10 mi
8:00 AM70 °FSunny.7 mph78%30.01 "Hg10 mi
7:00 AM68 °FSunny.7 mph83%29.98 "Hg10 mi
6:00 AM70 °FPassing clouds.3 mph83%29.98 "HgN/A
5:00 AM70 °FClear.5 mph83%29.95 "Hg10 mi
4:00 AM70 °FClear.5 mph83%29.95 "Hg10 mi
3:00 AM70 °FClear.2 mph83%29.95 "Hg10 mi
Weather by CustomWeather, © 2014

See weather overviewHow to use our weather pages